View from above orbital plane
|
View from above satellite
|
Ground track
|
The orbit data is extracted from the following two-line orbital elements,
1 29092U 06015A 21018.80911299 .00000039 00000-0 11306-4 0 9992
2 29092 97.9234 47.5742 0001382 92.6485 267.4887 14.83122211796756
Epoch (UTC): | 18 January 2021 19:25:07 |
Eccentricity: | 0.0001382 |
inclination: | 97.9234° |
perigee height: | 618 km |
apogee height: | 620 km |
right ascension of ascending node: | 47.5742° |
argument of perigee: | 92.6485° |
revolutions per day: | 14.83122211 |
mean anomaly at epoch: | 267.4887° |
orbit number at epoch: | 79675 |
The dashed part of the orbit path shows where the satellite is in the earth's shadow,
|
|